Météo par heure à Kytsivka

Ce jour, 24 Juillet, Samedi

Heure Température Précipitation Vent Pression Humidité
00:00 +18°C° 0 mm 2 m/s 750 mmHg 65%
01:00 +17°C° 0 mm 2 m/s 750 mmHg 66%
02:00 +17°C° 0 mm 2 m/s 750 mmHg 68%
03:00 +17°C° 0 mm 2 m/s 750 mmHg 68%
04:00 +17°C° 0 mm 2 m/s 750 mmHg 68%
05:00 +18°C° 0 mm 2 m/s 751 mmHg 68%
06:00 +20°C° 0 mm 2 m/s 751 mmHg 61%
07:00 +23°C° 0 mm 2 m/s 751 mmHg 54%
08:00 +25°C° 0 mm 2 m/s 751 mmHg 47%
09:00 +26°C° 0 mm 2 m/s 751 mmHg 43%
10:00 +28°C° 0 mm 2 m/s 751 mmHg 39%
11:00 +29°C° 0 mm 2 m/s 751 mmHg 35%
12:00 +29°C° 0 mm 3 m/s 751 mmHg 35%
13:00 +29°C° 0 mm 3 m/s 751 mmHg 35%
14:00 +29°C° 0 mm 3 m/s 751 mmHg 35%
15:00 +28°C° 0 mm 3 m/s 751 mmHg 40%
16:00 +27°C° 0 mm 3 m/s 751 mmHg 45%
17:00 +26°C° 0 mm 3 m/s 752 mmHg 50%
18:00 +25°C° 0 mm 2 m/s 752 mmHg 54%
19:00 +24°C° 0 mm 2 m/s 752 mmHg 58%
20:00 +23°C° 0 mm 1 m/s 753 mmHg 61%
21:00 +22°C° 0 mm 1 m/s 753 mmHg 65%
22:00 +21°C° 0 mm 1 m/s 753 mmHg 69%
23:00 +20°C° 0 mm 1 m/s 754 mmHg 72%

Demain, 25 Juillet, Dimanche

Heure Température Précipitation Vent Pression Humidité
00:00 +20°C° 0 mm 1 m/s 754 mmHg 73%
01:00 +20°C° 0 mm 1 m/s 754 mmHg 73%
02:00 +20°C° 0 mm 1 m/s 754 mmHg 73%
03:00 +20°C° 0.1 mm 1 m/s 754 mmHg 73%
04:00 +20°C° 0.1 mm 1 m/s 755 mmHg 74%
05:00 +20°C° 0.1 mm 1 m/s 755 mmHg 74%
06:00 +20°C° 0 mm 2 m/s 755 mmHg 68%
07:00 +21°C° 0 mm 2 m/s 755 mmHg 61%
08:00 +24°C° 0 mm 2 m/s 756 mmHg 55%
09:00 +25°C° 0 mm 3 m/s 756 mmHg 50%
10:00 +26°C° 0 mm 3 m/s 756 mmHg 45%
11:00 +28°C° 0 mm 3 m/s 756 mmHg 40%
12:00 +28°C° 0 mm 3 m/s 756 mmHg 39%
13:00 +29°C° 0 mm 3 m/s 756 mmHg 38%
14:00 +29°C° 0 mm 3 m/s 756 mmHg 37%
15:00 +29°C° 0 mm 3 m/s 756 mmHg 39%
16:00 +28°C° 0 mm 3 m/s 756 mmHg 41%
17:00 +27°C° 0 mm 3 m/s 756 mmHg 42%
18:00 +26°C° 0 mm 3 m/s 756 mmHg 46%
19:00 +24°C° 0 mm 3 m/s 756 mmHg 49%
20:00 +22°C° 0 mm 3 m/s 757 mmHg 53%
21:00 +21°C° 0 mm 3 m/s 757 mmHg 54%
22:00 +20°C° 0 mm 3 m/s 757 mmHg 56%
23:00 +19°C° 0 mm 3 m/s 757 mmHg 58%

Après-demain, 26 Juillet, Lundi

Heure Température Précipitation Vent Pression Humidité
00:00 +19°C° 0 mm 3 m/s 757 mmHg 60%
01:00 +18°C° 0 mm 3 m/s 757 mmHg 62%
02:00 +18°C° 0 mm 3 m/s 757 mmHg 64%
03:00 +18°C° 0 mm 3 m/s 758 mmHg 63%
04:00 +18°C° 0 mm 3 m/s 758 mmHg 62%
05:00 +18°C° 0 mm 3 m/s 758 mmHg 61%
06:00 +20°C° 0 mm 3 m/s 758 mmHg 54%
07:00 +23°C° 0 mm 4 m/s 758 mmHg 47%
08:00 +26°C° 0 mm 4 m/s 758 mmHg 40%
09:00 +27°C° 0 mm 4 m/s 758 mmHg 37%
10:00 +28°C° 0 mm 4 m/s 758 mmHg 34%
11:00 +30°C° 0 mm 4 m/s 758 mmHg 31%
12:00 +30°C° 0 mm 4 m/s 758 mmHg 30%
13:00 +30°C° 0 mm 4 m/s 757 mmHg 30%
14:00 +32°C° 0 mm 4 m/s 757 mmHg 29%
15:00 +30°C° 0 mm 4 m/s 757 mmHg 30%
16:00 +30°C° 0 mm 4 m/s 757 mmHg 32%
17:00 +29°C° 0 mm 4 m/s 757 mmHg 33%
18:00 +27°C° 0 mm 4 m/s 757 mmHg 39%
19:00 +25°C° 0 mm 3 m/s 757 mmHg 46%
20:00 +22°C° 0 mm 3 m/s 757 mmHg 53%
21:00 +21°C° 0 mm 3 m/s 757 mmHg 54%
22:00 +20°C° 0 mm 3 m/s 757 mmHg 56%
23:00 +20°C° 0 mm 3 m/s 758 mmHg 58%

27 Juillet, Mardi

Heure Température Précipitation Vent Pression Humidité
00:00 +19°C° 0 mm 3 m/s 757 mmHg 59%
01:00 +18°C° 0 mm 3 m/s 757 mmHg 60%
02:00 +18°C° 0 mm 3 m/s 757 mmHg 61%
03:00 +18°C° 0 mm 3 m/s 757 mmHg 60%
04:00 +18°C° 0 mm 3 m/s 757 mmHg 59%
05:00 +18°C° 0 mm 3 m/s 758 mmHg 58%
06:00 +20°C° 0 mm 3 m/s 757 mmHg 51%
07:00 +23°C° 0 mm 4 m/s 757 mmHg 45%
08:00 +26°C° 0 mm 4 m/s 757 mmHg 39%
09:00 +28°C° 0 mm 4 m/s 757 mmHg 37%
10:00 +29°C° 0 mm 4 m/s 757 mmHg 34%
11:00 +32°C° 0 mm 4 m/s 757 mmHg 32%
12:00 +31°C° 0 mm 3 m/s 757 mmHg 31%
13:00 +33°C° 0 mm 3 m/s 756 mmHg 31%
14:00 +32°C° 0 mm 2 m/s 756 mmHg 30%
15:00 +33°C° 0 mm 3 m/s 756 mmHg 32%
16:00 +31°C° 0 mm 3 m/s 756 mmHg 34%
17:00 +30°C° 0 mm 3 m/s 756 mmHg 36%
18:00 +28°C° 0 mm 3 m/s 756 mmHg 40%
19:00 +27°C° 0 mm 3 m/s 756 mmHg 45%
20:00 +25°C° 0 mm 3 m/s 756 mmHg 49%
21:00 +24°C° 0 mm 3 m/s 756 mmHg 51%
22:00 +24°C° 0 mm 3 m/s 756 mmHg 53%
23:00 +22°C° 0 mm 3 m/s 756 mmHg 56%

28 Juillet, Mercredi

Heure Température Précipitation Vent Pression Humidité
00:00 +21°C° 0 mm 3 m/s 756 mmHg 55%
01:00 +21°C° 0 mm 2 m/s 756 mmHg 55%
02:00 +20°C° 0 mm 2 m/s 756 mmHg 55%
03:00 +20°C° 0 mm 2 m/s 756 mmHg 55%
04:00 +20°C° 0 mm 2 m/s 756 mmHg 54%
05:00 +20°C° 0 mm 2 m/s 756 mmHg 54%
06:00 +24°C° 0 mm 2 m/s 755 mmHg 49%
07:00 +26°C° 0 mm 3 m/s 755 mmHg 43%
08:00 +28°C° 0 mm 3 m/s 755 mmHg 38%
09:00 +30°C° 0 mm 3 m/s 755 mmHg 35%
10:00 +33°C° 0 mm 3 m/s 755 mmHg 32%
11:00 +34°C° 0 mm 3 m/s 754 mmHg 29%
12:00 +35°C° 0 mm 3 m/s 754 mmHg 27%
13:00 +35°C° 0 mm 3 m/s 753 mmHg 25%
14:00 +36°C° 0 mm 4 m/s 753 mmHg 24%
15:00 +35°C° 0 mm 4 m/s 753 mmHg 24%
16:00 +35°C° 0 mm 4 m/s 753 mmHg 25%
17:00 +35°C° 0 mm 4 m/s 752 mmHg 25%
18:00 +31°C° 0 mm 3 m/s 752 mmHg 30%
19:00 +29°C° 0 mm 3 m/s 752 mmHg 36%
20:00 +27°C° 0 mm 3 m/s 752 mmHg 41%
21:00 +26°C° 0.1 mm 3 m/s 752 mmHg 47%
22:00 +25°C° 0.1 mm 3 m/s 752 mmHg 52%
23:00 +24°C° 0.1 mm 3 m/s 752 mmHg 58%

29 Juillet, Jeudi

Heure Température Précipitation Vent Pression Humidité
00:00 +22°C° 0.1 mm 3 m/s 752 mmHg 61%
01:00 +22°C° 0.1 mm 3 m/s 751 mmHg 63%
02:00 +22°C° 0.1 mm 3 m/s 751 mmHg 65%
03:00 +22°C° 0 mm 3 m/s 751 mmHg 64%
04:00 +22°C° 0 mm 3 m/s 751 mmHg 63%
05:00 +22°C° 0 mm 3 m/s 750 mmHg 62%
06:00 +25°C° 0 mm 4 m/s 750 mmHg 56%
07:00 +27°C° 0 mm 5 m/s 750 mmHg 50%
08:00 +29°C° 0 mm 6 m/s 750 mmHg 44%
09:00 +30°C° 0 mm 6 m/s 750 mmHg 45%
10:00 +30°C° 0 mm 6 m/s 750 mmHg 47%
11:00 +30°C° 0 mm 6 m/s 750 mmHg 49%
12:00 +32°C° 0.1 mm 6 m/s 749 mmHg 44%
13:00 +34°C° 0.1 mm 6 m/s 749 mmHg 39%
14:00 +35°C° 0.1 mm 6 m/s 749 mmHg 35%
15:00 +32°C° 1.4 mm 5 m/s 748 mmHg 49%
16:00 +28°C° 1.4 mm 4 m/s 748 mmHg 63%
17:00 +25°C° 1.4 mm 4 m/s 748 mmHg 77%
18:00 +24°C° 1.6 mm 3 m/s 749 mmHg 81%
19:00 +24°C° 1.6 mm 3 m/s 749 mmHg 85%
20:00 +23°C° 1.6 mm 2 m/s 749 mmHg 89%
21:00 +21°C° 0.2 mm 2 m/s 749 mmHg 90%
22:00 +21°C° 0.2 mm 2 m/s 749 mmHg 92%
23:00 +21°C° 0.2 mm 3 m/s 749 mmHg 93%
Voir plus

Nous avons besoin de votre consentement

Meteoprog et ses fournisseurs de services peuvent stocker et accéder à des données personnelles telles que des cookies, des identifiants d'appareils ou d'autres technologies similaires sur votre appareil et traiter ces données pour personnaliser le contenu et les publicités, ainsi que pour fournir des fonctionnalités de médias sociaux et analyser le trafic.

  • Stocker et/ou accéder à des informations sur votre appareil

    Des cookies, des identifiants d'appareils ou d'autres informations peuvent être stockés ou accessibles sur votre appareil aux fins indiquées ci-dessus.

  • Annonces et contenus personnalisés, mesure des annonces et des contenus, connaissance de l'audience et développement de produits

    Les annonces et le contenu peuvent être personnalisés en fonction d'un profil. D'autres données peuvent être ajoutées pour mieux personnaliser les annonces et le contenu. Les performances des publicités et du contenu peuvent être mesurées. Il est possible d'obtenir des informations sur le public qui a vu les publicités et le contenu. Ces données peuvent être utilisées pour développer ou améliorer l'expérience de l'utilisateur, les systèmes et les logiciels.

En cliquant sur "J'accepte", vous autorisez l'utilisation de cookies, des identifiants d'appareils, des balises web ou d'autres technologies similaires. Vos paramètres peuvent être modifiés dans le navigateur de votre appareil.

Dans certains cas, des intérêts légitimes peuvent être invoqués plutôt qu'un consentement. Vous pouvez en savoir plus à ce sujet dans notre Politique de confidentialité et de cookies.